| time (UTC) | temp C | wind direction | speed KPH | gust KPH | rain 1hr cm | rain 24hr cm | rain mn cm | humidity % | barometer mb |
| 20260510205057 | 20 | 223 | 3.2 | 9.7 | 0.00 | 0.53 | 0.13 | 55 | 1012.6 |
| 20260510204603 | 21 | 260 | 1.6 | 16.1 | 0.00 | 0.53 | 0.13 | 55 | 1012.5 |
| 20260510204054 | 21 | 314 | 1.6 | 16.1 | 0.00 | 0.53 | 0.13 | 55 | 1012.5 |
| 20260510203557 | 21 | 287 | 1.6 | 9.7 | 0.00 | 0.53 | 0.13 | 54 | 1012.5 |
| 20260510203058 | 21 | 254 | 1.6 | 9.7 | 0.00 | 0.53 | 0.13 | 53 | 1012.4 |
| 20260510202555 | 21 | 252 | 1.6 | 9.7 | 0.00 | 0.53 | 0.13 | 53 | 1012.4 |
| 20260510202054 | 21 | 200 | 3.2 | 8.0 | 0.00 | 0.53 | 0.13 | 52 | 1012.4 |
| 20260510201556 | 22 | 350 | 1.6 | 9.7 | 0.00 | 0.53 | 0.13 | 52 | 1012.3 |
| 20260510201055 | 22 | 282 | 0.0 | 9.7 | 0.00 | 0.53 | 0.13 | 50 | 1012.3 |
| 20260510200556 | 22 | 42 | 1.6 | 4.8 | 0.00 | 0.53 | 0.13 | 49 | 1012.2 |
| 20260510200100 | 22 | 0 | 1.6 | 4.8 | 0.00 | 0.53 | 0.13 | 50 | 1012.3 |
| 20260510195557 | 22 | 74 | 1.6 | 6.4 | 0.00 | 0.56 | 0.13 | 50 | 1012.3 |
| 20260510195055 | 22 | 243 | 1.6 | 6.4 | 0.00 | 0.56 | 0.13 | 49 | 1012.3 |
| 20260510194558 | 22 | 0 | 3.2 | 11.3 | 0.00 | 0.56 | 0.13 | 48 | 1012.2 |
| 20260510194056 | 23 | 190 | 1.6 | 11.3 | 0.00 | 0.56 | 0.13 | 47 | 1012.3 |
| 20260510193556 | 23 | 57 | 1.6 | 11.3 | 0.00 | 0.56 | 0.13 | 48 | 1012.3 |
| 20260510193059 | 23 | 297 | 3.2 | 11.3 | 0.00 | 0.56 | 0.13 | 46 | 1012.4 |
| 20260510192556 | 23 | 294 | 3.2 | 11.3 | 0.00 | 0.56 | 0.13 | 46 | 1012.3 |
| 20260510192058 | 23 | 207 | 3.2 | 11.3 | 0.00 | 0.56 | 0.13 | 47 | 1012.2 |
| 20260510191557 | 23 | 0 | 1.6 | 9.7 | 0.00 | 0.56 | 0.13 | 48 | 1012.2 |
| 20260510191055 | 23 | 138 | 1.6 | 9.7 | 0.00 | 0.56 | 0.13 | 49 | 1012.3 |
| 20260510190554 | 23 | 360 | 1.6 | 9.7 | 0.00 | 0.56 | 0.13 | 47 | 1012.3 |
| 20260510190059 | 23 | 325 | 3.2 | 9.7 | 0.00 | 0.56 | 0.13 | 46 | 1012.2 |
| 20260510185555 | 24 | 254 | 1.6 | 6.4 | 0.00 | 0.56 | 0.13 | 47 | 1012.2 |
| 20260510185055 | 24 | 252 | 1.6 | 8.0 | 0.00 | 0.56 | 0.13 | 49 | 1012.3 |
| 20260510184557 | 23 | 331 | 1.6 | 9.7 | 0.00 | 0.56 | 0.13 | 48 | 1012.3 |
| 20260510184056 | 23 | 230 | 1.6 | 9.7 | 0.00 | 0.56 | 0.13 | 52 | 1012.3 |
| 20260510183556 | 23 | 277 | 3.2 | 8.0 | 0.00 | 0.56 | 0.13 | 52 | 1012.3 |
| 20260510183102 | 23 | 242 | 1.6 | 8.0 | 0.00 | 0.56 | 0.13 | 51 | 1012.3 |
| 20260510182555 | 23 | 275 | 1.6 | 6.4 | 0.00 | 0.56 | 0.13 | 53 | 1012.3 |
| 20260510182055 | 22 | 317 | 1.6 | 6.4 | 0.00 | 0.56 | 0.13 | 56 | 1012.4 |
| 20260510181629 | 22 | 232 | 1.6 | 6.4 | 0.00 | 0.56 | 0.13 | 58 | 1012.3 |
| 20260510181056 | 22 | 350 | 1.6 | 4.8 | 0.00 | 0.56 | 0.13 | 58 | 1012.3 |
| 20260510180555 | 22 | 360 | 1.6 | 6.4 | 0.00 | 0.56 | 0.13 | 59 | 1012.3 |
| 20260510180107 | 22 | 337 | 1.6 | 6.4 | 0.00 | 0.56 | 0.13 | 59 | 1012.4 |
| 20260510175558 | 22 | 261 | 1.6 | 4.8 | 0.00 | 0.58 | 0.13 | 59 | 1012.2 |
| 20260510175145 | 22 | 360 | 0.0 | 4.8 | 0.00 | 0.58 | 0.13 | 59 | 1012.3 |
| 20260510174600 | 22 | 337 | 0.0 | 4.8 | 0.00 | 0.58 | 0.13 | 60 | 1012.2 |
| 20260510174056 | 22 | 215 | 0.0 | 4.8 | 0.00 | 0.58 | 0.13 | 61 | 1012.1 |
| 20260510173557 | 22 | 224 | 1.6 | 4.8 | 0.00 | 0.58 | 0.13 | 61 | 1012.0 |
| 20260510173056 | 22 | 199 | 1.6 | 6.4 | 0.00 | 0.58 | 0.13 | 60 | 1012.0 |
| 20260510172555 | 23 | 196 | 1.6 | 12.9 | 0.00 | 0.58 | 0.13 | 61 | 1012.0 |
| 20260510172054 | 23 | 302 | 3.2 | 12.9 | 0.00 | 0.58 | 0.13 | 61 | 1012.1 |
| 20260510171556 | 23 | 86 | 1.6 | 4.8 | 0.00 | 0.58 | 0.13 | 59 | 1012.0 |
| 20260510171056 | 22 | 40 | 1.6 | 3.2 | 0.00 | 0.58 | 0.13 | 61 | 1012.1 |
| 20260510170554 | 22 | 0 | 0.0 | 3.2 | 0.00 | 0.58 | 0.13 | 63 | 1012.1 |
| 20260510170055 | 22 | 83 | 1.6 | 8.0 | 0.00 | 0.58 | 0.13 | 63 | 1012.2 |
| 20260510165556 | 21 | 275 | 1.6 | 8.0 | 0.00 | 0.58 | 0.13 | 66 | 1012.2 |
| 20260510165057 | 21 | 66 | 0.0 | 4.8 | 0.00 | 0.58 | 0.13 | 66 | 1012.2 |
| 20260510164556 | 21 | 259 | 1.6 | 4.8 | 0.00 | 0.58 | 0.13 | 66 | 1012.4 |
| 20260510164055 | 21 | 351 | 1.6 | 3.2 | 0.00 | 0.58 | 0.13 | 67 | 1012.5 |
| 20260510163555 | 20 | 59 | 0.0 | 3.2 | 0.00 | 0.58 | 0.13 | 68 | 1012.6 |
| 20260510163101 | 20 | 86 | 1.6 | 6.4 | 0.00 | 0.58 | 0.13 | 68 | 1012.8 |
| 20260510162555 | 20 | 73 | 0.0 | 6.4 | 0.00 | 0.58 | 0.13 | 69 | 1012.7 |
| 20260510162056 | 20 | 108 | 1.6 | 4.8 | 0.00 | 0.58 | 0.13 | 68 | 1012.8 |
| 20260510161554 | 20 | 332 | 1.6 | 4.8 | 0.00 | 0.58 | 0.13 | 70 | 1012.8 |
| 20260510161057 | 20 | 107 | 1.6 | 3.2 | 0.00 | 0.58 | 0.13 | 70 | 1012.8 |
| 20260510160554 | 19 | 93 | 0.0 | 3.2 | 0.00 | 0.58 | 0.13 | 71 | 1012.8 |
| 20260510155556 | 18 | 48 | 1.6 | 4.8 | 0.00 | 0.58 | 0.13 | 74 | 1012.8 |
| 20260510155055 | 18 | 77 | 1.6 | 4.8 | 0.00 | 0.58 | 0.13 | 75 | 1012.7 |
| 20260510154602 | 18 | 61 | 0.0 | 3.2 | 0.00 | 0.58 | 0.13 | 76 | 1012.7 |
| 20260510154100 | 18 | 88 | 1.6 | 4.8 | 0.00 | 0.58 | 0.13 | 76 | 1012.8 |
| 20260510153555 | 18 | 0 | 1.6 | 4.8 | 0.00 | 0.58 | 0.13 | 76 | 1013.0 |
| 20260510153105 | 17 | 55 | 0.0 | 4.8 | 0.00 | 0.58 | 0.13 | 77 | 1013.0 |
| 20260510152602 | 17 | 14 | 0.0 | 4.8 | 0.00 | 0.58 | 0.13 | 78 | 1013.0 |
| 20260510152056 | 17 | 57 | 0.0 | 3.2 | 0.00 | 0.58 | 0.13 | 79 | 1012.9 |
| 20260510151557 | 16 | 24 | 1.6 | 3.2 | 0.00 | 0.58 | 0.13 | 80 | 1012.9 |
| 20260510151056 | 16 | 76 | 0.0 | 3.2 | 0.00 | 0.58 | 0.13 | 80 | 1012.9 |
| 20260510150555 | 16 | 22 | 0.0 | 3.2 | 0.00 | 0.58 | 0.13 | 83 | 1012.9 |
| 20260510150056 | 16 | 27 | 0.0 | 3.2 | 0.00 | 0.58 | 0.13 | 83 | 1013.0 |
| 20260510145555 | 16 | 0 | 0.0 | 3.2 | 0.00 | 0.58 | 0.13 | 83 | 1013.0 |
| 20260510145056 | 15 | 0 | 0.0 | 3.2 | 0.00 | 0.58 | 0.13 | 84 | 1013.2 |
| 20260510144556 | 15 | 360 | 0.0 | 3.2 | 0.00 | 0.58 | 0.13 | 85 | 1013.2 |
| 20260510144055 | 15 | 0 | 0.0 | 3.2 | 0.00 | 0.58 | 0.13 | 86 | 1013.2 |
| 20260510143555 | 15 | 0 | 0.0 | 3.2 | 0.00 | 0.58 | 0.13 | 86 | 1013.1 |
| 20260510143104 | 15 | 0 | 0.0 | 3.2 | 0.00 | 0.58 | 0.13 | 87 | 1013.0 |
| 20260510142557 | 14 | 292 | 0.0 | 3.2 | 0.00 | 0.58 | 0.13 | 87 | 1013.0 |
| 20260510142055 | 14 | 88 | 0.0 | 3.2 | 0.00 | 0.58 | 0.13 | 88 | 1013.0 |
| 20260510141556 | 13 | 0 | 0.0 | 3.2 | 0.00 | 0.58 | 0.13 | 89 | 1013.0 |
| 20260510141056 | 13 | 211 | 0.0 | 3.2 | 0.00 | 0.58 | 0.13 | 89 | 1013.1 |
| 20260510140556 | 13 | 240 | 0.0 | 3.2 | 0.00 | 0.58 | 0.13 | 90 | 1013.0 |
| 20260510140056 | 13 | 261 | 0.0 | 3.2 | 0.00 | 0.58 | 0.13 | 89 | 1012.8 |
| 20260510135555 | 13 | 0 | 0.0 | 3.2 | 0.00 | 0.58 | 0.13 | 90 | 1012.9 |
| 20260510135055 | 13 | 223 | 0.0 | 3.2 | 0.00 | 0.58 | 0.13 | 90 | 1012.9 |
| 20260510134604 | 13 | 0 | 0.0 | 3.2 | 0.00 | 0.58 | 0.13 | 91 | 1013.0 |
| 20260510134055 | 13 | 0 | 0.0 | 4.8 | 0.00 | 0.58 | 0.13 | 91 | 1012.9 |
| 20260510133556 | 12 | 360 | 0.0 | 4.8 | 0.00 | 0.58 | 0.13 | 91 | 1012.9 |
| 20260510133057 | 12 | 0 | 0.0 | 3.2 | 0.00 | 0.58 | 0.13 | 92 | 1012.9 |
| 20260510132556 | 12 | 306 | 0.0 | 3.2 | 0.00 | 0.58 | 0.13 | 92 | 1012.9 |
| 20260510132057 | 12 | 303 | 0.0 | 3.2 | 0.00 | 0.58 | 0.13 | 92 | 1012.9 |
| 20260510131554 | 12 | 0 | 0.0 | 3.2 | 0.00 | 0.58 | 0.13 | 93 | 1012.9 |
| 20260510131056 | 12 | 0 | 0.0 | 3.2 | 0.00 | 0.58 | 0.13 | 93 | 1012.8 |
| 20260510130557 | 12 | 0 | 0.0 | 3.2 | 0.00 | 0.58 | 0.13 | 93 | 1012.8 |
| 20260510130057 | 12 | 0 | 0.0 | 3.2 | 0.00 | 0.58 | 0.13 | 93 | 1012.7 |
| 20260510125557 | 12 | 360 | 0.0 | 3.2 | 0.00 | 0.58 | 0.13 | 93 | 1012.5 |
| 20260510125053 | 11 | 79 | 0.0 | 3.2 | 0.00 | 0.58 | 0.13 | 93 | 1012.5 |
| 20260510124557 | 11 | 0 | 0.0 | 3.2 | 0.00 | 0.58 | 0.13 | 94 | 1012.4 |
| 20260510124056 | 11 | 0 | 0.0 | 3.2 | 0.00 | 0.58 | 0.13 | 93 | 1012.5 |
| 20260510123554 | 11 | 0 | 0.0 | 3.2 | 0.00 | 0.58 | 0.13 | 93 | 1012.4 |
| 20260510123056 | 11 | 240 | 0.0 | 3.2 | 0.00 | 0.58 | 0.13 | 93 | 1012.4 |
| 20260510122556 | 11 | 240 | 0.0 | 3.2 | 0.00 | 0.58 | 0.13 | 93 | 1012.3 |
| 20260510122053 | 11 | 0 | 0.0 | 3.2 | 0.00 | 0.58 | 0.13 | 94 | 1012.4 |
| 20260510121558 | 11 | 0 | 0.0 | 3.2 | 0.00 | 0.58 | 0.13 | 93 | 1012.5 |
| 20260510121056 | 11 | 214 | 0.0 | 3.2 | 0.00 | 0.58 | 0.13 | 93 | 1012.3 |
| 20260510120556 | 11 | 0 | 0.0 | 3.2 | 0.00 | 0.58 | 0.13 | 94 | 1012.0 |
| 20260510115556 | 11 | 263 | 0.0 | 3.2 | 0.03 | 0.58 | 0.13 | 94 | 1012.0 |
| 20260510115056 | 11 | 0 | 0.0 | 3.2 | 0.03 | 0.58 | 0.13 | 94 | 1012.0 |
| 20260510114558 | 11 | 247 | 0.0 | 3.2 | 0.03 | 0.58 | 0.13 | 94 | 1012.0 |
| 20260510114056 | 11 | 0 | 0.0 | 3.2 | 0.03 | 0.58 | 0.13 | 94 | 1012.0 |
| 20260510113557 | 11 | 0 | 0.0 | 3.2 | 0.03 | 0.58 | 0.13 | 94 | 1012.0 |
| 20260510113058 | 11 | 0 | 0.0 | 3.2 | 0.03 | 0.58 | 0.13 | 94 | 1011.9 |
| 20260510112556 | 11 | 0 | 0.0 | 3.2 | 0.03 | 0.58 | 0.13 | 94 | 1011.9 |
| 20260510112057 | 11 | 0 | 0.0 | 3.2 | 0.03 | 0.58 | 0.13 | 94 | 1011.9 |
| 20260510111555 | 11 | 0 | 0.0 | 3.2 | 0.03 | 0.58 | 0.13 | 94 | 1011.9 |
| 20260510111057 | 11 | 0 | 0.0 | 3.2 | 0.03 | 0.58 | 0.13 | 94 | 1011.9 |
| 20260510110557 | 10 | 242 | 0.0 | 3.2 | 0.03 | 0.58 | 0.13 | 94 | 1011.6 |
| 20260510110056 | 10 | 223 | 0.0 | 3.2 | 0.00 | 0.56 | 0.10 | 94 | 1011.5 |
| 20260510105556 | 10 | 0 | 0.0 | 3.2 | 0.00 | 0.56 | 0.10 | 94 | 1011.6 |
| 20260510105056 | 10 | 232 | 0.0 | 3.2 | 0.00 | 0.56 | 0.10 | 94 | 1011.5 |
| 20260510104555 | 10 | 0 | 0.0 | 0.0 | 0.00 | 0.56 | 0.10 | 94 | 1011.4 |
| 20260510104058 | 10 | 0 | 0.0 | 3.2 | 0.00 | 0.56 | 0.10 | 94 | 1011.4 |
| 20260510103556 | 10 | 0 | 0.0 | 3.2 | 0.00 | 0.56 | 0.10 | 94 | 1011.4 |
| 20260510103056 | 10 | 232 | 0.0 | 3.2 | 0.00 | 0.56 | 0.10 | 94 | 1011.5 |
| 20260510102556 | 10 | 0 | 0.0 | 0.0 | 0.00 | 0.56 | 0.10 | 94 | 1011.4 |
| 20260510102057 | 10 | 0 | 0.0 | 3.2 | 0.00 | 0.56 | 0.10 | 94 | 1011.3 |
| 20260510101600 | 10 | 0 | 0.0 | 3.2 | 0.00 | 0.56 | 0.10 | 94 | 1011.4 |
| 20260510101057 | 10 | 0 | 0.0 | 3.2 | 0.00 | 0.56 | 0.10 | 94 | 1011.4 |
| 20260510100559 | 10 | 0 | 0.0 | 3.2 | 0.00 | 0.56 | 0.10 | 94 | 1011.3 |
| 20260510100130 | 10 | 0 | 0.0 | 3.2 | 0.00 | 0.56 | 0.10 | 94 | 1011.4 |
| 20260510095600 | 10 | 0 | 0.0 | 3.2 | 0.00 | 0.56 | 0.10 | 94 | 1011.5 |
| 20260510095056 | 10 | 0 | 0.0 | 3.2 | 0.00 | 0.56 | 0.10 | 94 | 1011.5 |
| 20260510094558 | 10 | 0 | 0.0 | 3.2 | 0.03 | 0.56 | 0.10 | 94 | 1011.5 |
| 20260510094059 | 10 | 0 | 0.0 | 3.2 | 0.03 | 0.56 | 0.10 | 94 | 1011.4 |
| 20260510093557 | 10 | 104 | 0.0 | 3.2 | 0.03 | 0.56 | 0.10 | 94 | 1011.4 |
| 20260510093101 | 10 | 0 | 0.0 | 3.2 | 0.03 | 0.56 | 0.10 | 94 | 1011.3 |
| 20260510092555 | 10 | 0 | 0.0 | 3.2 | 0.03 | 0.56 | 0.10 | 94 | 1011.4 |
| 20260510092059 | 10 | 351 | 0.0 | 3.2 | 0.03 | 0.56 | 0.10 | 94 | 1011.5 |
| 20260510091559 | 10 | 0 | 0.0 | 3.2 | 0.03 | 0.56 | 0.10 | 94 | 1011.5 |
| 20260510091057 | 10 | 0 | 0.0 | 3.2 | 0.03 | 0.56 | 0.10 | 93 | 1011.7 |
| 20260510090557 | 10 | 0 | 0.0 | 3.2 | 0.03 | 0.56 | 0.10 | 94 | 1011.7 |
| 20260510090101 | 10 | 0 | 0.0 | 3.2 | 0.03 | 0.56 | 0.10 | 94 | 1011.8 |
| 20260510085559 | 10 | 0 | 0.0 | 3.2 | 0.03 | 0.56 | 0.10 | 94 | 1011.9 |
| 20260510085056 | 10 | 0 | 0.0 | 3.2 | 0.03 | 0.56 | 0.10 | 94 | 1011.9 |
| 20260510084556 | 10 | 0 | 0.0 | 3.2 | 0.00 | 0.53 | 0.08 | 94 | 1012.0 |
| 20260510084057 | 10 | 273 | 0.0 | 3.2 | 0.00 | 0.53 | 0.08 | 94 | 1012.0 |
| 20260510083557 | 10 | 0 | 1.6 | 3.2 | 0.00 | 0.53 | 0.08 | 94 | 1011.9 |
| 20260510083102 | 10 | 265 | 0.0 | 3.2 | 0.00 | 0.53 | 0.08 | 94 | 1011.8 |
| 20260510082553 | 10 | 0 | 0.0 | 3.2 | 0.00 | 0.53 | 0.08 | 94 | 1011.9 |
| 20260510082053 | 11 | 249 | 0.0 | 3.2 | 0.00 | 0.53 | 0.08 | 93 | 1012.0 |
| 20260510081555 | 11 | 9 | 0.0 | 3.2 | 0.03 | 0.53 | 0.08 | 94 | 1011.7 |
| 20260510081056 | 11 | 242 | 0.0 | 3.2 | 0.03 | 0.53 | 0.08 | 94 | 1011.9 |
| 20260510080557 | 11 | 0 | 0.0 | 3.2 | 0.03 | 0.53 | 0.08 | 94 | 1011.7 |
| 20260510080059 | 11 | 248 | 0.0 | 3.2 | 0.03 | 0.53 | 0.08 | 94 | 1011.4 |
| 20260510075553 | 11 | 305 | 0.0 | 3.2 | 0.03 | 0.53 | 0.08 | 94 | 1011.1 |
| 20260510075057 | 11 | 0 | 0.0 | 3.2 | 0.03 | 0.53 | 0.08 | 94 | 1011.0 |
| 20260510074557 | 11 | 0 | 0.0 | 0.0 | 0.03 | 0.53 | 0.08 | 94 | 1011.0 |
| 20260510074056 | 11 | 0 | 0.0 | 0.0 | 0.03 | 0.53 | 0.08 | 94 | 1010.9 |
| 20260510073557 | 11 | 0 | 0.0 | 1.6 | 0.03 | 0.53 | 0.08 | 94 | 1011.0 |
| 20260510073056 | 11 | 0 | 0.0 | 1.6 | 0.03 | 0.53 | 0.08 | 94 | 1010.8 |
| 20260510072557 | 11 | 294 | 0.0 | 3.2 | 0.03 | 0.53 | 0.08 | 94 | 1010.9 |
| 20260510072057 | 11 | 0 | 0.0 | 3.2 | 0.03 | 0.53 | 0.08 | 94 | 1010.9 |
| 20260510071600 | 11 | 0 | 0.0 | 3.2 | 0.00 | 0.51 | 0.05 | 94 | 1010.9 |
| 20260510071057 | 11 | 0 | 0.0 | 3.2 | 0.00 | 0.51 | 0.05 | 94 | 1010.9 |
| 20260510070556 | 11 | 0 | 0.0 | 1.6 | 0.00 | 0.51 | 0.05 | 94 | 1011.0 |
| 20260510070101 | 11 | 0 | 0.0 | 3.2 | 0.03 | 0.51 | 0.05 | 94 | 1010.9 |
| 20260510065554 | 11 | 0 | 0.0 | 3.2 | 0.03 | 0.51 | 0.05 | 94 | 1011.1 |
| 20260510065056 | 11 | 0 | 0.0 | 3.2 | 0.03 | 0.51 | 0.05 | 93 | 1011.2 |
| 20260510064558 | 11 | 0 | 0.0 | 3.2 | 0.03 | 0.51 | 0.05 | 94 | 1011.1 |
| 20260510064054 | 11 | 0 | 0.0 | 3.2 | 0.03 | 0.51 | 0.05 | 94 | 1011.2 |
| 20260510063556 | 11 | 252 | 0.0 | 3.2 | 0.03 | 0.51 | 0.05 | 94 | 1011.2 |
| 20260510063055 | 11 | 0 | 0.0 | 3.2 | 0.03 | 0.51 | 0.05 | 94 | 1011.1 |
| 20260510062557 | 11 | 0 | 0.0 | 1.6 | 0.03 | 0.51 | 0.05 | 94 | 1011.1 |
| 20260510062100 | 11 | 0 | 0.0 | 3.2 | 0.03 | 0.51 | 0.05 | 94 | 1011.1 |
| 20260510061558 | 11 | 0 | 0.0 | 3.2 | 0.03 | 0.51 | 0.05 | 93 | 1010.9 |
| 20260510061057 | 11 | 0 | 0.0 | 3.2 | 0.03 | 0.51 | 0.05 | 93 | 1010.7 |
| 20260510060557 | 11 | 0 | 0.0 | 3.2 | 0.03 | 0.51 | 0.05 | 93 | 1010.5 |
| 20260510060058 | 11 | 228 | 0.0 | 3.2 | 0.00 | 0.48 | 0.03 | 93 | 1010.6 |
| 20260510055557 | 11 | 201 | 0.0 | 3.2 | 0.03 | 0.48 | 0.03 | 93 | 1010.7 |
| 20260510055057 | 11 | 0 | 0.0 | 3.2 | 0.03 | 0.48 | 0.03 | 93 | 1010.7 |
| 20260510054556 | 11 | 0 | 0.0 | 3.2 | 0.03 | 0.48 | 0.03 | 93 | 1010.8 |
| 20260510054056 | 11 | 0 | 0.0 | 3.2 | 0.03 | 0.48 | 0.03 | 93 | 1010.7 |
| 20260510053553 | 11 | 190 | 0.0 | 1.6 | 0.03 | 0.48 | 0.03 | 93 | 1010.7 |
| 20260510053057 | 11 | 0 | 0.0 | 0.0 | 0.03 | 0.48 | 0.03 | 93 | 1010.7 |
| 20260510052556 | 11 | 0 | 0.0 | 0.0 | 0.03 | 0.48 | 0.03 | 93 | 1010.7 |
| 20260510052058 | 11 | 0 | 0.0 | 0.0 | 0.03 | 0.48 | 0.03 | 93 | 1010.7 |
| 20260510051558 | 11 | 0 | 0.0 | 3.2 | 0.03 | 0.48 | 0.03 | 93 | 1010.8 |
| 20260510051056 | 10 | 0 | 0.0 | 3.2 | 0.03 | 0.48 | 0.03 | 93 | 1010.8 |
| 20260510050557 | 10 | 0 | 0.0 | 3.2 | 0.03 | 0.48 | 0.03 | 93 | 1010.9 |
| 20260510050055 | 10 | 0 | 0.0 | 0.0 | 0.03 | 0.48 | 0.03 | 93 | 1010.9 |
| 20260510045557 | 10 | 0 | 0.0 | 0.0 | 0.00 | 0.46 | 0.00 | 93 | 1010.9 |
| 20260510045057 | 10 | 0 | 0.0 | 0.0 | 0.03 | 0.46 | 0.00 | 93 | 1010.9 |
| 20260510044559 | 10 | 0 | 0.0 | 0.0 | 0.03 | 0.46 | 0.00 | 93 | 1010.9 |
| 20260510044059 | 10 | 0 | 0.0 | 0.0 | 0.03 | 0.46 | 0.00 | 93 | 1011.0 |
| 20260510043557 | 10 | 0 | 0.0 | 0.0 | 0.03 | 0.46 | 0.00 | 93 | 1011.0 |
| 20260510043059 | 10 | 0 | 0.0 | 0.0 | 0.03 | 0.46 | 0.00 | 93 | 1011.1 |
| 20260510042559 | 10 | 0 | 0.0 | 0.0 | 0.03 | 0.46 | 0.00 | 93 | 1011.0 |
| 20260510042056 | 10 | 0 | 0.0 | 0.0 | 0.03 | 0.46 | 0.00 | 93 | 1011.0 |
| 20260510041558 | 10 | 0 | 0.0 | 3.2 | 0.03 | 0.46 | 0.00 | 93 | 1011.0 |
| 20260510041055 | 10 | 0 | 0.0 | 3.2 | 0.03 | 0.46 | 0.00 | 93 | 1011.0 |
| 20260510040557 | 10 | 0 | 0.0 | 3.2 | 0.03 | 0.46 | 0.00 | 93 | 1010.9 |
| 20260510035558 | 10 | 0 | 0.0 | 0.0 | 0.03 | 0.46 | 0.46 | 93 | 1010.8 |
| 20260510035053 | 10 | 0 | 0.0 | 0.0 | 0.03 | 0.43 | 0.43 | 92 | 1010.9 |
| 20260510034611 | 10 | 0 | 0.0 | 0.0 | 0.03 | 0.43 | 0.43 | 92 | 1010.7 |
| 20260510034058 | 10 | 0 | 0.0 | 0.0 | 0.03 | 0.43 | 0.43 | 92 | 1010.7 |
| 20260510033554 | 10 | 0 | 0.0 | 0.0 | 0.03 | 0.43 | 0.43 | 92 | 1010.6 |
| 20260510033124 | 10 | 0 | 0.0 | 0.0 | 0.03 | 0.43 | 0.43 | 92 | 1010.6 |
| 20260510032559 | 10 | 0 | 0.0 | 0.0 | 0.03 | 0.43 | 0.43 | 92 | 1010.6 |
| 20260510032101 | 10 | 0 | 0.0 | 3.2 | 0.03 | 0.43 | 0.43 | 92 | 1010.7 |
| 20260510031600 | 10 | 0 | 0.0 | 3.2 | 0.03 | 0.43 | 0.43 | 92 | 1010.6 |
| 20260510031056 | 10 | 0 | 0.0 | 3.2 | 0.03 | 0.43 | 0.43 | 92 | 1010.5 |
| 20260510030557 | 10 | 0 | 0.0 | 3.2 | 0.03 | 0.43 | 0.43 | 92 | 1010.6 |
| 20260510030107 | 10 | 0 | 0.0 | 0.0 | 0.03 | 0.43 | 0.43 | 92 | 1010.6 |
| 20260510025557 | 10 | 0 | 0.0 | 3.2 | 0.05 | 0.43 | 0.43 | 92 | 1010.6 |
| 20260510025056 | 10 | 0 | 0.0 | 3.2 | 0.03 | 0.41 | 0.41 | 92 | 1010.6 |
| 20260510024602 | 10 | 0 | 0.0 | 0.0 | 0.03 | 0.41 | 0.41 | 92 | 1010.5 |
| 20260510024112 | 11 | 0 | 0.0 | 3.2 | 0.03 | 0.41 | 0.41 | 92 | 1010.6 |
| 20260510023556 | 11 | 0 | 0.0 | 3.2 | 0.03 | 0.41 | 0.41 | 92 | 1010.6 |
| 20260510023055 | 11 | 0 | 0.0 | 1.6 | 0.03 | 0.41 | 0.41 | 92 | 1010.6 |
| 20260510022557 | 11 | 0 | 0.0 | 3.2 | 0.03 | 0.41 | 0.41 | 92 | 1010.7 |
| 20260510022057 | 11 | 0 | 0.0 | 3.2 | 0.03 | 0.41 | 0.41 | 92 | 1010.6 |
| 20260510021555 | 11 | 0 | 0.0 | 1.6 | 0.03 | 0.41 | 0.41 | 92 | 1010.8 |
| 20260510021054 | 10 | 0 | 0.0 | 1.6 | 0.05 | 0.41 | 0.41 | 92 | 1010.8 |
| 20260510020554 | 10 | 0 | 0.0 | 0.0 | 0.05 | 0.41 | 0.41 | 92 | 1010.7 |
| 20260510020057 | 10 | 0 | 0.0 | 0.0 | 0.05 | 0.41 | 0.41 | 92 | 1010.8 |
| 20260510015557 | 10 | 0 | 0.0 | 0.0 | 0.03 | 0.38 | 0.38 | 92 | 1010.6 |
| 20260510015057 | 10 | 0 | 0.0 | 0.0 | 0.03 | 0.38 | 0.38 | 92 | 1010.6 |
| 20260510014554 | 10 | 0 | 0.0 | 0.0 | 0.03 | 0.38 | 0.38 | 91 | 1010.6 |
| 20260510014057 | 10 | 0 | 0.0 | 0.0 | 0.03 | 0.38 | 0.38 | 91 | 1010.6 |
| 20260510013557 | 10 | 0 | 0.0 | 1.6 | 0.03 | 0.38 | 0.38 | 91 | 1010.7 |
| 20260510013056 | 10 | 0 | 0.0 | 1.6 | 0.05 | 0.38 | 0.38 | 91 | 1010.7 |
| 20260510012559 | 11 | 0 | 0.0 | 0.0 | 0.05 | 0.38 | 0.38 | 90 | 1010.7 |
| 20260510012058 | 11 | 0 | 0.0 | 0.0 | 0.05 | 0.38 | 0.38 | 91 | 1010.7 |
| 20260510011559 | 11 | 0 | 0.0 | 0.0 | 0.05 | 0.38 | 0.38 | 90 | 1010.6 |
| 20260510011057 | 11 | 0 | 0.0 | 0.0 | 0.03 | 0.36 | 0.36 | 90 | 1010.4 |
| 20260510010557 | 11 | 0 | 0.0 | 0.0 | 0.03 | 0.36 | 0.36 | 90 | 1010.3 |
| 20260510010055 | 11 | 0 | 0.0 | 0.0 | 0.05 | 0.36 | 0.36 | 90 | 1010.3 |
| 20260510005558 | 11 | 0 | 0.0 | 0.0 | 0.05 | 0.36 | 0.36 | 90 | 1010.2 |
| 20260510005056 | 11 | 0 | 0.0 | 0.0 | 0.05 | 0.36 | 0.36 | 90 | 1010.2 |
| 20260510004559 | 11 | 0 | 0.0 | 0.0 | 0.05 | 0.36 | 0.36 | 90 | 1010.3 |
| 20260510004100 | 11 | 0 | 0.0 | 3.2 | 0.05 | 0.36 | 0.36 | 90 | 1010.2 |
| 20260510003558 | 11 | 0 | 0.0 | 3.2 | 0.08 | 0.36 | 0.36 | 89 | 1010.2 |
| 20260510003111 | 12 | 0 | 0.0 | 3.2 | 0.05 | 0.33 | 0.33 | 89 | 1010.1 |
| 20260510002557 | 12 | 0 | 0.0 | 3.2 | 0.05 | 0.33 | 0.33 | 89 | 1010.1 |
| 20260510002058 | 12 | 0 | 0.0 | 0.0 | 0.05 | 0.33 | 0.33 | 89 | 1010.1 |
| 20260510001554 | 12 | 0 | 0.0 | 0.0 | 0.05 | 0.33 | 0.33 | 89 | 1010.2 |
| 20260510001058 | 12 | 0 | 0.0 | 0.0 | 0.08 | 0.33 | 0.33 | 89 | 1010.1 |
| 20260510000600 | 12 | 0 | 0.0 | 3.2 | 0.08 | 0.33 | 0.33 | 89 | 1010.2 |
| 20260509235557 | 12 | 0 | 0.0 | 0.0 | 0.05 | 0.30 | 0.30 | 89 | 1009.9 |
| 20260509235057 | 12 | 0 | 0.0 | 1.6 | 0.08 | 0.30 | 0.30 | 89 | 1010.0 |
| 20260509234604 | 12 | 0 | 0.0 | 1.6 | 0.08 | 0.30 | 0.30 | 88 | 1009.9 |
| 20260509234055 | 12 | 0 | 0.0 | 3.2 | 0.08 | 0.30 | 0.30 | 88 | 1009.9 |
| 20260509233558 | 12 | 0 | 0.0 | 3.2 | 0.05 | 0.28 | 0.28 | 88 | 1009.8 |
| 20260509233055 | 13 | 98 | 0.0 | 3.2 | 0.08 | 0.28 | 0.28 | 88 | 1009.6 |
| 20260509232556 | 13 | 0 | 0.0 | 3.2 | 0.08 | 0.28 | 0.28 | 88 | 1009.6 |
| 20260509232054 | 13 | 0 | 0.0 | 3.2 | 0.08 | 0.28 | 0.28 | 89 | 1009.6 |
| 20260509231558 | 13 | 0 | 0.0 | 3.2 | 0.08 | 0.28 | 0.28 | 89 | 1009.8 |
| 20260509231056 | 13 | 94 | 1.6 | 3.2 | 0.08 | 0.25 | 0.25 | 88 | 1009.7 |
| 20260509230557 | 13 | 181 | 0.0 | 3.2 | 0.08 | 0.25 | 0.25 | 89 | 1009.8 |
| 20260509230105 | 13 | 233 | 0.0 | 3.2 | 0.08 | 0.25 | 0.25 | 89 | 1009.7 |
| 20260509225557 | 13 | 17 | 0.0 | 3.2 | 0.10 | 0.25 | 0.25 | 89 | 1009.8 |
| 20260509225057 | 13 | 0 | 0.0 | 3.2 | 0.08 | 0.23 | 0.23 | 89 | 1009.9 |
| 20260509224558 | 13 | 0 | 0.0 | 3.2 | 0.08 | 0.23 | 0.23 | 89 | 1010.1 |
| 20260509224057 | 13 | 0 | 0.0 | 3.2 | 0.10 | 0.23 | 0.23 | 90 | 1010.1 |
| 20260509223557 | 13 | 161 | 0.0 | 3.2 | 0.10 | 0.23 | 0.23 | 90 | 1010.2 |
| 20260509223102 | 13 | 205 | 0.0 | 3.2 | 0.08 | 0.20 | 0.20 | 90 | 1010.2 |
| 20260509222556 | 12 | 106 | 0.0 | 3.2 | 0.10 | 0.20 | 0.20 | 90 | 1010.1 |
| 20260509222057 | 12 | 23 | 0.0 | 3.2 | 0.10 | 0.20 | 0.20 | 90 | 1010.2 |
| 20260509221558 | 12 | 0 | 0.0 | 3.2 | 0.10 | 0.20 | 0.20 | 89 | 1010.2 |
| 20260509221057 | 12 | 29 | 0.0 | 3.2 | 0.10 | 0.18 | 0.18 | 90 | 1010.2 |
| 20260509220556 | 12 | 13 | 0.0 | 3.2 | 0.10 | 0.18 | 0.18 | 90 | 1010.2 |
| 20260509220057 | 12 | 43 | 0.0 | 3.2 | 0.10 | 0.18 | 0.18 | 89 | 1010.2 |
| 20260509215557 | 12 | 0 | 0.0 | 3.2 | 0.08 | 0.15 | 0.15 | 89 | 1010.2 |
| 20260509215057 | 12 | 0 | 0.0 | 3.2 | 0.08 | 0.15 | 0.15 | 89 | 1010.4 |
| 20260509214557 | 12 | 0 | 0.0 | 3.2 | 0.10 | 0.15 | 0.15 | 89 | 1010.6 |
| 20260509214056 | 12 | 0 | 0.0 | 3.2 | 0.08 | 0.13 | 0.13 | 88 | 1010.4 |
| 20260509213556 | 12 | 0 | 0.0 | 3.2 | 0.08 | 0.13 | 0.13 | 88 | 1010.6 |
| 20260509213100 | 13 | 0 | 0.0 | 3.2 | 0.08 | 0.13 | 0.13 | 88 | 1010.5 |
| 20260509212557 | 13 | 0 | 0.0 | 3.2 | 0.05 | 0.10 | 0.10 | 87 | 1010.4 |
| 20260509212058 | 13 | 0 | 0.0 | 3.2 | 0.05 | 0.10 | 0.10 | 87 | 1010.6 |
| 20260509211604 | 13 | 0 | 0.0 | 3.2 | 0.05 | 0.10 | 0.10 | 87 | 1010.4 |
| 20260509211058 | 13 | 230 | 0.0 | 3.2 | 0.03 | 0.08 | 0.08 | 86 | 1010.4 |
| 20260509210600 | 13 | 0 | 0.0 | 3.2 | 0.03 | 0.08 | 0.08 | 86 | 1010.5 |
| 20260509205556 | 13 | 0 | 0.0 | 3.2 | 0.03 | 0.08 | 0.08 | 85 | 1010.3 |